Regional Weather Roundup
Issued by NWS State College, PA

Home | Current Version | Previous Version | Graphics & Text | Print | Product List | Glossary On
Versions: 1 2 3 4 5 6 7 8 9 10 11 12 13 14 15 16 17 18 19 20 21 22 23 24 25 26 27 28 29 30 31 32 33 34 35 36 37 38 39 40 41 42 43 44 45 46 47 48 49 50
000
ASUS41 KCTP 231810
RWRCTP

REGIONAL WEATHER ROUNDUP
NATIONAL WEATHER SERVICE STATE COLLEGE PA
200 PM EDT TUE MAY 23 2017

Note: "fair" indicates few or no clouds below 12,000 feet with no
significant weather and/or obstructions to visibility.

* = STATION THAT DOES NOT REPORT PRECIPITATION /E.G. RAIN...SNOW...ETC/
    THUNDER OR FOG.

PAZ002>004-007>009-013>016-020>023-029>032-231900-
WESTERN PENNSYLVANIA

CITY           SKY/WX    TMP DP  RH WIND       PRES   REMARKS
ERIE           MOSUNNY   67  48  50 NW9       29.85F
MEADVILLE      SUNNY     70  46  42 E6        29.85F
FRANKLIN*      SUNNY     70  46  43 S10       29.87F
NEW CASTLE     NOT AVBL
BEAVER COUNTY  SUNNY     72  43  35 MISG      29.84F
BUTLER*        CLOUDY    70  46  43 E10       29.84F
PITTSBURGH INT CLOUDY    70  47  43 SE14      29.82F
PITTSBURGH     CLOUDY    69  45  41 SE12      29.83F
INDIANA*       NOT AVBL
LATROBE        PTSUNNY   68  46  45 SE14      29.86F
WASHINGTON CO* CLOUDY    68  50  52 E9        29.85F
$$

PAZ004>006-010>012-017>019-024>028-033>037-041-042-045-046-049>053-231900-
CENTRAL PENNSYLVANIA

CITY           SKY/WX    TMP DP  RH WIND       PRES   REMARKS
BRADFORD       MOSUNNY  N/A N/A N/A MISG      29.89F
DUBOIS         CLOUDY    67  43  41 SE8       29.88F
CLEARFIELD     CLOUDY    68  42  38 VRB6      29.90F
JOHNSTOWN      CLOUDY    62  43  49 SE10G20   29.90F
ALTOONA        CLOUDY    66  44  45 SE10      29.92F
STATE COLLEGE  SUNNY     66  45  45 E3        29.91F
WILLIAMSPORT   CLOUDY    69  50  50 CALM      29.89F
SELINSGROVE    CLOUDY    65  51  60 CALM      29.92F
FT INDIANTOWN  CLOUDY    63  50  63 E3        29.92F
CAPITAL CITY   CLOUDY    66  46  48 VRB3      29.91F
HARRISBURG     CLOUDY    65  48  54 CALM      29.91F
YORK           CLOUDY    64  51  62 SE6       29.92F
$$

PAZ038>040-043-044-047-048-054-055-060>062-067>071-231900-
EASTERN PENNSYLVANIA

CITY           SKY/WX    TMP DP  RH WIND       PRES   REMARKS
SCRANTON       CLOUDY    65  48  54 NW3       29.90F
MOUNT POCONO   CLOUDY    59  46  62 SE7       29.92F
ALLENTOWN      CLOUDY    67  48  50 NE5       29.92F
QUAKERTOWN*    PTCLDY    64  50  59 CALM      29.93F
READING        CLOUDY    67  50  54 SE6       29.90F
LANCASTER      CLOUDY    66  51  58 E8        29.91F
COATESVILLE    CLOUDY    63  54  72 VRB6      29.93F
POTTSTOWN      CLOUDY    64  50  60 VRB5      29.93F
BLUE BELL      CLOUDY    63  54  72 SE5       29.94F
DOYLESTOWN     CLOUDY    63  54  72 S6        29.92F
WILLOW GROVE   NOT AVBL
NORTH PHILA    CLOUDY    67  50  54 NE5       29.94F
PHILADELPHIA   CLOUDY    66  51  58 E7        29.92F
$$




USA.gov is the U.S. government's official web portal to all federal, state and local government web resources and services.